You find our weatherinfo also at:

UK Metoffice

European Weather Network

Weather Underground



Select another period ( hide this area )

Units Period Custom range Directly to
Metric English Both
Daily Weekly Monthly Yearly
use both date-selectors for a custom range
previous dag
With this date

WeatherUnderground graphs for this period ( click here )


Daily Summary for lørdag Nov 17 2018
Time Temp. ( °C ) Dew pt. ( °C ) Vind fra ( km/h ) fra Vindstød ( km/h ) lufttryk ( hPa ) Humid.( % ) Rainrate ( cm )
Høj3,8 2,8 6,4 ESE ( 27/35 ) 12,9 1039,2 94 -
Average2,4 1,4 0,5 vindstille #89/103 6,1 1036,1 93 -
Lav1,4 0,4 -   0,0 1036,5 93 -
Daily Tabular details for lørdag Nov 17 2018
Time Temp. ( °C ) Dew pt. ( °C ) Vind fra ( km/h ) fra Vindstød ( km/h ) lufttryk ( hPa ) Humid.( % ) Rainrate ( cm )
00:04 3,8 2,8   vindstille 9,7 1036,5 93 -
00:09 3,7 2,7   vindstille 9,7 1036,5 93 -
00:14 3,7 2,7   vindstille 8,0 1036,5 93 -
00:19 3,7 2,7   vindstille 11,3 1036,5 93 -
00:24 3,7 2,7   vindstille 11,3 1036,5 93 -
00:29 3,7 2,7 3,2 SSE 11,3 1036,5 93 -
00:34 3,7 2,7   vindstille 11,3 1036,5 93 -
00:39 3,7 2,7   vindstille 11,3 1036,5 93 -
00:44 3,7 2,7 6,4 ESE 11,3 1036,5 93 -
00:49 3,6 2,6 3,2 ESE 9,7 1036,5 93 -
00:54 3,6 2,6   vindstille 12,9 1036,5 93 -
00:59 3,6 2,6 4,8 ESE 12,9 1036,5 93 -
01:04 3,5 2,5   vindstille 11,3 1036,5 93 -
01:09 3,5 2,5 1,6 ESE 11,3 1036,5 93 -
01:14 3,4 2,4   vindstille 9,7 1036,8 93 -
01:19 3,4 2,4   vindstille 9,7 1036,8 93 -
01:24 3,3 2,3   vindstille 9,7 1036,8 93 -
01:29 3,3 2,3   vindstille 6,4 1036,8 93 -
01:34 3,2 2,2   vindstille 4,8 1037,1 93 -
01:39 3,2 2,2 4,8 ESE 4,8 1037,1 93 -
01:44 3,2 2,2   vindstille 6,4 1037,1 93 -
01:49 3,2 2,2   vindstille 6,4 1037,1 93 -
01:54 3,1 2,1   vindstille 6,4 1037,1 93 -
01:59 3,1 2,1   vindstille 4,8 1037,1 93 -
02:04 3,0 2,0   vindstille 6,4 1037,1 93 -
02:09 2,9 1,9   vindstille 6,4 1037,1 93 -
02:14 2,8 1,8   vindstille 6,4 1037,1 93 -
02:19 2,8 1,8   vindstille 3,2 1037,1 93 -
02:24 2,7 1,7   vindstille 4,8 1037,5 93 -
02:29 2,6 1,6   vindstille 4,8 1037,5 93 -
02:34 2,6 1,6   vindstille 4,8 1037,5 93 -
02:39 2,4 1,4   vindstille   1037,5 93 -
02:44 2,3 1,3   vindstille   1037,5 93 -
02:49 2,3 1,3   vindstille   1037,5 93 -
02:54 2,3 1,3   vindstille   1037,5 93 -
02:59 2,3 1,3   vindstille   1037,5 93 -
03:04 2,3 1,3   vindstille   1037,5 93 -
03:09 2,3 1,3   vindstille 4,8 1037,5 93 -
03:14 2,3 1,3   vindstille 4,8 1037,5 93 -
03:19 2,3 1,3 4,8 ESE 4,8 1037,5 93 -
03:24 2,3 1,3   vindstille 6,4 1037,5 93 -
03:29 2,4 1,4   vindstille 6,4 1037,5 93 -
03:34 2,6 1,6   vindstille 6,4 1037,5 93 -
03:39 2,6 1,6   vindstille 12,9 1037,5 93 -
03:44 2,6 1,6 1,6 SE 12,9 1037,5 93 -
03:49 2,6 1,6   vindstille 12,9 1037,5 93 -
03:54 2,6 1,6   vindstille 11,3 1037,5 93 -
03:59 2,7 1,7 4,8 ESE 6,4 1037,8 93 -
04:04 2,6 1,6   vindstille 9,7 1037,8 93 -
04:09 2,6 1,6   vindstille 9,7 1037,8 93 -
04:14 2,6 1,6   vindstille 11,3 1037,8 93 -
04:19 2,5 1,5   vindstille 11,3 1037,8 93 -
04:24 2,4 1,4   vindstille 11,3 1037,8 93 -
04:29 2,4 1,4   vindstille 9,7 1037,8 93 -
04:34 2,4 1,4 3,2 East 9,7 1037,8 93 -
04:39 2,4 1,5   vindstille 9,7 1037,8 94 -
04:44 2,4 1,4   vindstille 9,7 1037,8 93 -
04:49 2,3 1,3   vindstille 9,7 1037,8 93 -
04:54 2,3 1,3 3,2 ESE 6,4 1037,8 93 -
04:59 2,2 1,2   vindstille 6,4 1037,8 93 -
05:04 2,2 1,2   vindstille 6,4 1037,8 93 -
05:09 2,1 1,1   vindstille 4,8 1037,8 93 -
05:14 2,1 1,1   vindstille 1,6 1037,8 93 -
05:19 2,0 1,0   vindstille 8,0 1037,8 93 -
05:24 2,0 1,0   vindstille 8,0 1037,8 93 -
05:29 2,0 1,0   vindstille 8,0 1037,5 93 -
05:34 1,9 0,9   vindstille 6,4 1037,8 93 -
05:39 1,9 1,0   vindstille 6,4 1037,5 94 -
05:44 1,9 1,0 4,8 ESE 6,4 1037,8 94 -
05:49 2,0 1,1   vindstille 9,7 1037,8 94 -
05:54 2,0 1,1   vindstille 9,7 1037,8 94 -
05:59 2,0 1,1 4,8 ESE 11,3 1037,8 94 -
06:04 1,9 1,0   vindstille 11,3 1037,8 94 -
06:09 1,8 0,8   vindstille 11,3 1037,8 93 -
06:14 1,7 0,7   vindstille 8,0 1037,8 93 -
06:19 1,6 0,7   vindstille 4,8 1037,8 94 -
06:24 1,6 0,7   vindstille 4,8 1038,1 94 -
06:29 1,5 0,6   vindstille   1038,1 94 -
06:34 1,5 0,5   vindstille   1038,1 93 -
06:39 1,4 0,4   vindstille   1038,1 93 -
06:44 1,5 0,6   vindstille   1038,1 94 -
06:49 1,5 0,6   vindstille   1038,1 94 -
06:54 1,5 0,6   vindstille 3,2 1038,1 94 -
06:59 1,5 0,6   vindstille 3,2 1038,1 94 -
07:04 1,5 0,6   vindstille   1038,1 94 -
07:09 1,4 0,5   vindstille   1038,1 94 -
07:14 1,4 0,5   vindstille   1038,1 94 -
07:19 1,4 0,5   vindstille   1038,1 94 -
07:24 1,4 0,5   vindstille   1038,5 94 -
07:29 1,5 0,6   vindstille   1038,5 94 -
07:34 1,5 0,6 4,8 ENE   1038,5 94 -
07:39 1,6 0,7   vindstille 4,8 1038,5 94 -
07:44 1,7 0,8   vindstille 4,8 1038,8 94 -
07:49 1,7 0,8   vindstille 4,8 1038,8 94 -
07:54 1,7 0,8   vindstille 4,8 1038,8 94 -
07:59 1,8 0,9   vindstille 3,2 1038,8 94 -
08:04 1,8 0,9   vindstille 1,6 1038,8 94 -
08:09 1,8 0,9   vindstille   1039,2 94 -
08:14 1,8 0,9   vindstille   1039,2 94 -
08:19 1,8 0,9   vindstille 1,6 1039,2 94 -
08:24 1,8 0,9   vindstille 1,6 1039,2 94 -
08:29 1,8 0,9   vindstille   1039,2 94 -
08:34 1,8 0,9   vindstille 4,8 1039,2 94 -
Daily Summary for lørdag Nov 17 2018
Time Temp. ( °C ) Dew pt. ( °C ) Vind fra ( km/h ) fra Vindstød ( km/h ) lufttryk ( hPa ) Humid.( % ) Rainrate ( cm )
Høj3,8 2,8 6,4 ESE ( 27/35 ) 12,9 1039,2 94 -
Average2,4 1,4 0,5 vindstille #89/103 6,1 1036,1 93 -
Lav1,4 0,4 -   0,0 1036,5 93 -
Daily Tabular details for lørdag Nov 17 2018
Time Temp. ( °C ) Dew pt. ( °C ) Vind fra ( km/h ) fra Vindstød ( km/h ) lufttryk ( hPa ) Humid.( % ) Rainrate ( cm )
00:04 3,8 2,8   vindstille 9,7 1036,5 93 -
00:09 3,7 2,7   vindstille 9,7 1036,5 93 -
00:14 3,7 2,7   vindstille 8,0 1036,5 93 -
00:19 3,7 2,7   vindstille 11,3 1036,5 93 -
00:24 3,7 2,7   vindstille 11,3 1036,5 93 -
00:29 3,7 2,7 3,2 SSE 11,3 1036,5 93 -
00:34 3,7 2,7   vindstille 11,3 1036,5 93 -
00:39 3,7 2,7   vindstille 11,3 1036,5 93 -
00:44 3,7 2,7 6,4 ESE 11,3 1036,5 93 -
00:49 3,6 2,6 3,2 ESE 9,7 1036,5 93 -
00:54 3,6 2,6   vindstille 12,9 1036,5 93 -
00:59 3,6 2,6 4,8 ESE 12,9 1036,5 93 -
01:04 3,5 2,5   vindstille 11,3 1036,5 93 -
01:09 3,5 2,5 1,6 ESE 11,3 1036,5 93 -
01:14 3,4 2,4   vindstille 9,7 1036,8 93 -
01:19 3,4 2,4   vindstille 9,7 1036,8 93 -
01:24 3,3 2,3   vindstille 9,7 1036,8 93 -
01:29 3,3 2,3   vindstille 6,4 1036,8 93 -
01:34 3,2 2,2   vindstille 4,8 1037,1 93 -
01:39 3,2 2,2 4,8 ESE 4,8 1037,1 93 -
01:44 3,2 2,2   vindstille 6,4 1037,1 93 -
01:49 3,2 2,2   vindstille 6,4 1037,1 93 -
01:54 3,1 2,1   vindstille 6,4 1037,1 93 -
01:59 3,1 2,1   vindstille 4,8 1037,1 93 -
02:04 3,0 2,0   vindstille 6,4 1037,1 93 -
02:09 2,9 1,9   vindstille 6,4 1037,1 93 -
02:14 2,8 1,8   vindstille 6,4 1037,1 93 -
02:19 2,8 1,8   vindstille 3,2 1037,1 93 -
02:24 2,7 1,7   vindstille 4,8 1037,5 93 -
02:29 2,6 1,6   vindstille 4,8 1037,5 93 -
02:34 2,6 1,6   vindstille 4,8 1037,5 93 -
02:39 2,4 1,4   vindstille   1037,5 93 -
02:44 2,3 1,3   vindstille   1037,5 93 -
02:49 2,3 1,3   vindstille   1037,5 93 -
02:54 2,3 1,3   vindstille   1037,5 93 -
02:59 2,3 1,3   vindstille   1037,5 93 -
03:04 2,3 1,3   vindstille   1037,5 93 -
03:09 2,3 1,3   vindstille 4,8 1037,5 93 -
03:14 2,3 1,3   vindstille 4,8 1037,5 93 -
03:19 2,3 1,3 4,8 ESE 4,8 1037,5 93 -
03:24 2,3 1,3   vindstille 6,4 1037,5 93 -
03:29 2,4 1,4   vindstille 6,4 1037,5 93 -
03:34 2,6 1,6   vindstille 6,4 1037,5 93 -
03:39 2,6 1,6   vindstille 12,9 1037,5 93 -
03:44 2,6 1,6 1,6 SE 12,9 1037,5 93 -
03:49 2,6 1,6   vindstille 12,9 1037,5 93 -
03:54 2,6 1,6   vindstille 11,3 1037,5 93 -
03:59 2,7 1,7 4,8 ESE 6,4 1037,8 93 -
04:04 2,6 1,6   vindstille 9,7 1037,8 93 -
04:09 2,6 1,6   vindstille 9,7 1037,8 93 -
04:14 2,6 1,6   vindstille 11,3 1037,8 93 -
04:19 2,5 1,5   vindstille 11,3 1037,8 93 -
04:24 2,4 1,4   vindstille 11,3 1037,8 93 -
04:29 2,4 1,4   vindstille 9,7 1037,8 93 -
04:34 2,4 1,4 3,2 East 9,7 1037,8 93 -
04:39 2,4 1,5   vindstille 9,7 1037,8 94 -
04:44 2,4 1,4   vindstille 9,7 1037,8 93 -
04:49 2,3 1,3   vindstille 9,7 1037,8 93 -
04:54 2,3 1,3 3,2 ESE 6,4 1037,8 93 -
04:59 2,2 1,2   vindstille 6,4 1037,8 93 -
05:04 2,2 1,2   vindstille 6,4 1037,8 93 -
05:09 2,1 1,1   vindstille 4,8 1037,8 93 -
05:14 2,1 1,1   vindstille 1,6 1037,8 93 -
05:19 2,0 1,0   vindstille 8,0 1037,8 93 -
05:24 2,0 1,0   vindstille 8,0 1037,8 93 -
05:29 2,0 1,0   vindstille 8,0 1037,5 93 -
05:34 1,9 0,9   vindstille 6,4 1037,8 93 -
05:39 1,9 1,0   vindstille 6,4 1037,5 94 -
05:44 1,9 1,0 4,8 ESE 6,4 1037,8 94 -
05:49 2,0 1,1   vindstille 9,7 1037,8 94 -
05:54 2,0 1,1   vindstille 9,7 1037,8 94 -
05:59 2,0 1,1 4,8 ESE 11,3 1037,8 94 -
06:04 1,9 1,0   vindstille 11,3 1037,8 94 -
06:09 1,8 0,8   vindstille 11,3 1037,8 93 -
06:14 1,7 0,7   vindstille 8,0 1037,8 93 -
06:19 1,6 0,7   vindstille 4,8 1037,8 94 -
06:24 1,6 0,7   vindstille 4,8 1038,1 94 -
06:29 1,5 0,6   vindstille   1038,1 94 -
06:34 1,5 0,5   vindstille   1038,1 93 -
06:39 1,4 0,4   vindstille   1038,1 93 -
06:44 1,5 0,6   vindstille   1038,1 94 -
06:49 1,5 0,6   vindstille   1038,1 94 -
06:54 1,5 0,6   vindstille 3,2 1038,1 94 -
06:59 1,5 0,6   vindstille 3,2 1038,1 94 -
07:04 1,5 0,6   vindstille   1038,1 94 -
07:09 1,4 0,5   vindstille   1038,1 94 -
07:14 1,4 0,5   vindstille   1038,1 94 -
07:19 1,4 0,5   vindstille   1038,1 94 -
07:24 1,4 0,5   vindstille   1038,5 94 -
07:29 1,5 0,6   vindstille   1038,5 94 -
07:34 1,5 0,6 4,8 ENE   1038,5 94 -
07:39 1,6 0,7   vindstille 4,8 1038,5 94 -
07:44 1,7 0,8   vindstille 4,8 1038,8 94 -
07:49 1,7 0,8   vindstille 4,8 1038,8 94 -
07:54 1,7 0,8   vindstille 4,8 1038,8 94 -
07:59 1,8 0,9   vindstille 3,2 1038,8 94 -
08:04 1,8 0,9   vindstille 1,6 1038,8 94 -
08:09 1,8 0,9   vindstille   1039,2 94 -
08:14 1,8 0,9   vindstille   1039,2 94 -
08:19 1,8 0,9   vindstille 1,6 1039,2 94 -
08:24 1,8 0,9   vindstille 1,6 1039,2 94 -
08:29 1,8 0,9   vindstille   1039,2 94 -
08:34 1,8 0,9   vindstille 4,8 1039,2 94 -

Download your copy of this data-set  here

Our weather-data as stored at Weather Underground. Original script by Jim McMurry. Adapted for the template by Leuven-Template.eu

Equipment we use:

Weatherstation
Davis VP2

Weatherprogram
Meteohub

Weatherserver
RaspberryPI 3 model B

Davis VP2

Meteohub

RaspberryPI 3 model B